Alderney, United Kingdom

3:38 PM GMT on February 20, 2017 (GMT +0000)
Alderney

Weather History for EGJA - November, 2011

Change the Weather History Date:

Friday, November 18, 2011

  Actual Average Record
Temperature  
Mean Temperature 54 °F -  
Max Temperature 55 °F 49 °F 59 °F (2015)
Min Temperature 53 °F 45 °F 41 °F (2007)
Degree Days  
Heating Degree Days 11    
Growing Degree Days 4 (Base 50)    
Moisture  
Dew Point 49 °F    
Average Humidity 81    
Maximum Humidity 94    
Minimum Humidity 67    
Precipitation  
Precipitation 0.00 in - - ()
Sea Level Pressure  
Sea Level Pressure 30.01 in    
Wind  
Wind Speed 16 mph ()    
Max Wind Speed 22 mph    
Max Gust Speed -    
Visibility 6.2 miles    
Events      
Averages and records for this station are not official NWS values.
T = Trace of Precipitation, MM = Missing Value Source: Averaged Metar Reports

Daily Weather History Graph

Daily Weather History Graph

Search for Another Location

Airport or City:

Trip Planner

Search our weather history database for the weather conditions in past years. The results will help you decide how hot, cold, wet, or windy it might be!

Date:

Astronomy

Nov. 18, 2011 Rise Set
Actual Time 7:24 AM GMT 4:22 PM GMT
Civil Twilight 6:49 AM GMT 4:58 PM GMT
Nautical Twilight 6:09 AM GMT 5:37 PM GMT
Astronomical Twilight 5:31 AM GMT 6:15 PM GMT
Moon 11:53 PM GMT (11/18) 12:41 PM GMT (11/18)
Length of Visible Light 10h 09m
Length of Day
8h 57m
Waning Gibbous, 51% of the Moon is Illuminated
Nov 18
Waning Gibbous
Nov 18
Last Quarter
Nov 25
New
Dec 2
First Quarter
Dec 10
Full

Hourly Weather History & Observations

Time (GMT) Temp. Dew Point Humidity Pressure Visibility Wind Dir Wind Speed Gust Speed Precip Events Conditions
6:50 AM 53.6 °F 51.8 °F 94% 30.04 in 6.2 mi South 17.3 mph - N/A   Partly Cloudy
7:20 AM 53.6 °F 51.8 °F 94% 30.04 in 6.2 mi South 18.4 mph - N/A   Partly Cloudy
7:50 AM 53.6 °F 51.8 °F 94% 30.04 in 6.2 mi South 18.4 mph - N/A   Partly Cloudy
8:20 AM 53.6 °F 51.8 °F 94% 30.06 in 6.2 mi South 17.3 mph - N/A   Scattered Clouds
8:50 AM 55.4 °F 51.8 °F 88% 30.06 in 6.2 mi South 17.3 mph - N/A   Scattered Clouds
9:20 AM 53.6 °F 51.8 °F 94% 30.06 in 6.2 mi South 18.4 mph - N/A   Scattered Clouds
9:50 AM 55.4 °F 50.0 °F 82% 30.06 in 6.2 mi South 19.6 mph - N/A   Scattered Clouds
10:20 AM 53.6 °F 50.0 °F 88% 30.06 in 6.2 mi South 17.3 mph - N/A   Scattered Clouds
10:50 AM 53.6 °F 50.0 °F 88% 30.06 in 6.2 mi SSE 18.4 mph - N/A   Partly Cloudy
11:20 AM 53.6 °F 50.0 °F 88% 30.04 in 6.2 mi South 18.4 mph - N/A   Partly Cloudy
11:50 AM 53.6 °F 50.0 °F 88% 30.04 in 6.2 mi South 18.4 mph - N/A   Scattered Clouds
12:20 PM 53.6 °F 50.0 °F 88% 30.04 in 6.2 mi SSE 17.3 mph - N/A   Scattered Clouds
12:50 PM 55.4 °F 50.0 °F 82% 30.01 in 6.2 mi SSE 17.3 mph - N/A   Partly Cloudy
1:20 PM 55.4 °F 48.2 °F 77% 30.01 in 6.2 mi SSE 16.1 mph - N/A   Partly Cloudy
1:50 PM 55.4 °F 48.2 °F 77% 30.01 in 6.2 mi SSE 17.3 mph - N/A   Partly Cloudy
2:20 PM 55.4 °F 46.4 °F 72% 29.98 in - SSE 20.7 mph - N/A   Clear
2:50 PM 55.4 °F 46.4 °F 72% 29.98 in - SSE 20.7 mph - N/A   Clear
3:20 PM 55.4 °F 46.4 °F 72% 29.98 in - SSE 19.6 mph - N/A   Clear
3:50 PM 55.4 °F 44.6 °F 67% 29.98 in - SSE 19.6 mph - N/A   Clear
4:20 PM 55.4 °F 46.4 °F 72% 29.95 in - SSE 18.4 mph - N/A   Clear
4:50 PM 55.4 °F 44.6 °F 67% 29.95 in - SSE 19.6 mph - N/A   Clear
5:20 PM 55.4 °F 44.6 °F 67% 29.95 in - SSE 19.6 mph - N/A   Clear
5:50 PM 55.4 °F 44.6 °F 67% 29.95 in - SSE 19.6 mph - N/A   Clear
6:20 PM 55.4 °F 44.6 °F 67% 29.95 in - SSE 21.9 mph - N/A   Clear